Regional Weather Roundup
Issued by NWS

Home | Current Version | Previous Version | Text Only | Print | Product List | Glossary On
Versions: 1 2 3 4 5 6 7 8 9 10 11 12 13 14 15 16 17 18 19 20 21 22 23 24 25 26 27 28 29 30 31 32 33 34 35 36 37 38 39 40 41 42 43 44 45 46 47 48 49 50
585
ASUS42 KTBW 221117
RWRFL
FLORIDA REGIONAL WEATHER ROUNDUP
NATIONAL WEATHER SERVICE TAMPA BAY RUSKIN FL
600 AM EST SUN JAN 22 2017

NOTE: "FAIR" INDICATES FEW OR NO CLOUDS BELOW 12,000 FEET WITH NO
SIGNIFICANT WEATHER AND/OR OBSTRUCTIONS TO VISIBILITY.

FLZ001>010-012>015-112-114-115-221200-
PANHANDLE FLORIDA

CITY           SKY/WX    TMP DP  RH WIND       PRES   REMARKS
PENSACOLA      CLOUDY    73  69  87 SW14G22   29.53S
PENSACOLA NAS  CLOUDY    71  69  93 SW8       29.53S FOG
MILTON NAS     LGT RAIN  71  68  90 SW9       29.52
CRESTVIEW      CLOUDY    73  69  87 SW12      29.54S
DUKE FIELD     FAIR      73  69  87 SW10G20   29.53R
VALPARAISO     MOCLDY    73  70  92 SW12G17   29.54F
MARY ESTHER    CLOUDY    72  64  77 SW8       29.52F
TRI COUNTY     MOCLDY    72  71  97 SW5       29.55S
PANAMA CITY    MOCLDY    74  71  91 S15       29.55S
TYNDALL AFB    LGT RAIN  71  70  94 SW14G21   29.57R
APALACHICOLA   MOCLDY    73  73 100 S17G23    29.56F

STATION/POSITION SKY/WX   TEMP    WIND        PRES    WAVE   SWELL
                          AIR SEA DIR/SP/G            HT/PER HT/PER
                          (F)     (DEG/KT/KT) (MB)    (FT/S) (FT/S)
30.1N   87.6W              68 66  240/  6/  8  999.8F   6/ 8   7/ 8
28.8N   86.0W              77 75              1001.1F   9/ 7
PANAMA CITY BEAC           71 68  200/ 13/ 16 1001.0R
TOWER C                    72     200/ 27/ 33 1001.8F
28.5N   84.5W              76 73  210/ 17/ 23 1003.3F   7/ 7   3/11

$$
FLZ011-016>038-118-127-128-134-139-239-221200-
NORTH FLORIDA

CITY           SKY/WX    TMP DP  RH WIND       PRES   REMARKS
MARIANNA       TSTM      73  71  93 S13       29.54S
TALLAHASSEE    CLOUDY    74  71  91 S15G22    29.55F THUNDER
PERRY          CLOUDY    73  70  91 S14G21    29.63F
CROSS CITY     CLOUDY    72  70  94 S15G23    29.66F
LAKE CITY      CLOUDY    68  68 100 S6        29.65S
GAINESVILLE    MOCLDY    82  65  56 S12       29.68F
WILLISTON      CLOUDY    73  70  88 S6G13     29.70S
PALATKA        CLOUDY    72  66  83 S8        29.71S
MAYPORT NAS    MOCLDY    69  63  81 S16G22    29.67F
JACKSONVILLE   PTCLDY    68  64  87 S13       29.66S
JAX NAS        PTCLDY    68  63  84 S14       29.68F
FERNANDINA BEA FAIR      70  64  83 S13       29.66R
ST AUGUSTINE   CLOUDY    70  63  78 S12       29.71F

STATION/POSITION SKY/WX   TEMP    WIND        PRES    WAVE   SWELL
                          AIR SEA DIR/SP/G            HT/PER HT/PER
                          (F)     (DEG/KT/KT) (MB)    (FT/S) (FT/S)
SHELL POINT      NOT AVBL
KEATON BEACH               68     160/ 18/ 21 1003.1F
CEDAR KEY                  70     200/ 19/ 21 1005.6F
FERNANDINA                 68 65  170/  7/ 12 1005.1R
30.7N   81.3W                 63                N/A     3/ 4   2/11
MAYPORT                    69 64  200/  9/ 14 1004.9F
31.4N   80.9W              66 62  180/ 19/ 23 1003.2    3/ 5   2/12
ST AUGUSTINE               69 64  190/ 11/ 14 1006.5F

$$
FLZ040-043>046-052-053-057-058-063-144-221200-
INTERIOR CENTRAL FLORIDA

CITY           SKY/WX    TMP DP  RH WIND       PRES   REMARKS
OCALA          CLOUDY    70  64  83 S12       29.71S
THE VILLAGES     N/A     72  72 100 MISG      29.62S
LEESBURG       CLOUDY    71  65  81 S10       29.73F
SANFORD        PTCLDY    69  64  84 S12       29.74F
ORLANDO EXEC   MOCLDY    68  65  90 S12       29.75S
ORLANDO INTL   MOCLDY    68  64  87 S10       29.76S
KISSIMMEE      CLOUDY    69  66  90 S7        29.76F
WINTER HAVEN   MOCLDY    69  66  90 S14       29.75F
LAKELAND       CLOUDY    68  68 100 S14       29.74F
BARTOW         MOCLDY    66  66 100 S12       29.75F
OKEECHOBEE     MOCLDY    68  66  94 S8        29.79F

$$
FLZ041-047-054-059-064-141-147-221200-
EAST CENTRAL FLORIDA

CITY           SKY/WX    TMP DP  RH WIND       PRES   REMARKS
DAYTONA BEACH  CLOUDY    68  64  87 S8        29.75R
DELAND         CLOUDY    70  66  88 S13       29.73F
JFK SPACE CTR  CLEAR     69  65  87 SW13      29.75R
CAPE CANAVERAL CLEAR     72  66  83 S10       29.75R
PATRICK AFB    CLEAR     71  67  88 S17       29.76R
MELBOURNE      CLEAR     69  67  93 S14       29.77R
VERO BEACH     CLEAR     70  67  90 S12       29.79S
FT PIERCE      CLEAR     69  66  90 S9        29.79S
STUART         CLEAR     72  68  88 S7        29.81S

STATION/POSITION SKY/WX   TEMP    WIND        PRES    WAVE   SWELL
                          AIR SEA DIR/SP/G            HT/PER HT/PER
                          (F)     (DEG/KT/KT) (MB)    (FT/S) (FT/S)
TRIDENT PIER     NOT AVBL
28.4N   80.5W                 70                N/A     4/ 5   2/11
27.5N   80.2W                 76                N/A     3/13   2/13

$$
FLZ050-056-061-142-242-148-248-149-249-151-251-155-255-
160-260-221200-
WEST CENTRAL FLORIDA

CITY           SKY/WX    TMP DP  RH WIND       PRES   REMARKS
CRYSTAL RIVER  CLOUDY    70  68  94 SE5       29.70F
INVERNESS      CLOUDY    70  68  94 S9        29.72S
BROOKSVILLE    CLOUDY    72  68  87 S13       29.71F
CLEARWATER AIR CLOUDY    72  72 100 S15G26    29.70F
ST PETE CLEARW CLOUDY    74  70  87 S17G25    29.71F
TAMPA INTL     CLOUDY    74  70  87 S15       29.72F
TAMPA EXEC     CLOUDY    72  68  88 S8        29.73F
PLANT CITY     CLOUDY    72  70  94 S7        29.76R
MACDILL AFB    CLOUDY    72  72 100 W12       29.72S
PETER O KNIGHT CLOUDY    73  72  94 S8        29.73S
ST PETERSBURG  CLOUDY    72  70  93 SW18      29.70F
SARASOTA       CLOUDY    72  70  93 S20G25    29.72R
VENICE         FAIR      72  72 100 S15G22    29.74S

STATION/POSITION SKY/WX   TEMP    WIND        PRES    WAVE   SWELL
                          AIR SEA DIR/SP/G            HT/PER HT/PER
                          (F)     (DEG/KT/KT) (MB)    (FT/S) (FT/S)
27.3N   84.2W                 77                N/A     7/ 7
CLEARWATER BEACH           73 70  170/ 21/ 26 1005.6F
MIDDLE TAMPA BAY           72     200/ 19/ 22 1006.3F
VENICE                     71 71  170/ 17/ 19 1006.6S

$$
FLZ066-069-070-075>078-162-262-165-265-221200-
SOUTHWEST FLORIDA AND KEYS

CITY           SKY/WX    TMP DP  RH WIND       PRES   REMARKS
PUNTA GORDA    PTCLDY    73  70  90 S18G24    29.77S
FT MYERS       PTCLDY    74  71  91 S13G21    29.76S
SOUTHWEST INTL CLOUDY    73  69  87 S12       29.77F
NAPLES         PTCLDY    74  71  91 S14G22    29.78R
MARCO ISLAND   CLEAR     73  70  88 S12       29.79S
MARATHON       CLOUDY    80  71  74 S12G23    29.82S
KEY WEST NAS   PTCLDY    77  71  82 S21       29.81S
KEY WEST INTL  CLEAR     78  73  84 S16G25    29.81

STATION/POSITION SKY/WX   TEMP    WIND        PRES    WAVE   SWELL
                          AIR SEA DIR/SP/G            HT/PER HT/PER
                          (F)     (DEG/KT/KT) (MB)    (FT/S) (FT/S)
NAPLES                        71              1008.3R
26.0N   85.6W              76 76  190/ 17/ 21 1004.3F   6/ 6   2/ 8
DRY TORTUGAS               77     190/ 16/ 17 1008.1R
SAND KEY                   77     200/ 24/ 28 1009.6S
LONG KEY                   77 75  200/ 14/ 16 1010.2S

$$
FLZ067-068-071>074-168-172>174-221200-
SOUTHEAST FLORIDA

CITY           SKY/WX    TMP DP  RH WIND       PRES   REMARKS
W PALM BEACH   PTCLDY    71  68  90 S7        29.82S
FT LAUDER-EXEC CLEAR     74  67  78 S7        29.82S
FT LAUDERDALE  PTCLDY    74  69  85 S7        29.82R
POMPANO BEACH  CLEAR     74  69  85 S7        29.82S
PEMBROKE PINES CLEAR     74  68  81 S7        29.83S
OPA LOCKA      CLEAR     74  68  81 S10       29.83R
MIAMI          PTCLDY    75  68  78 S9G20     29.82S
WEST KENDALL   CLEAR     75  68  78 S9        29.82S
HOMESTEAD      CLEAR     73  73 100 S8        29.83R

STATION/POSITION SKY/WX   TEMP    WIND        PRES    WAVE   SWELL
                          AIR SEA DIR/SP/G            HT/PER HT/PER
                          (F)     (DEG/KT/KT) (MB)    (FT/S) (FT/S)
PORT EVERGLADES            74     180/  4/  8 1009.8S
VIRGINIA KEY               75 80  200/ 12/ 15 1010.3R
LAKE WORTH                 74 76  200/  9/ 10 1009.5F
FOWEY ROCKS                76 75  190/ 26/ 29 1010.2S

$$





USA.gov is the U.S. government's official web portal to all federal, state and local government web resources and services.